Location: Skalnate Pleso
(49.1889°N, 20.2450°E)
Time: 10:49:50
(UTC+01:00)

Cosmos 839 Rocket - Pass Details

Date: 19 November 2019
Orbit: 968 x 2084 km, 65.9° (Epoch: 08 December)

Event Time Altitude Azimuth Distance (km) Brightness Sun altitude
Exits shadow 04:54:08 32° 278° (W) 1,697 4.7 -19.4°
Maximum altitude 04:56:19 42° 320° (NW) 1,413 4.5 -19.0°
Drops below altitude 10° 05:02:10 10° 31° (NNE) 2,720 6.6 -18.1°
Sets 05:04:50 0° 39° (NE) 3,678 7.4 -17.7°
